Location: Bakov nad Jizerou
(50.4784°N, 14.9394°E)
Time: 06:55:37
(UTC+00:00)

Cosmos 2322 - Pass Details

Date: 16 June 2021
Orbit: 839 x 855 km, 71.0° (Epoch: 28 July)

Event Time Altitude Azimuth Distance (km) Brightness Sun altitude
Exits shadow 22:03:01 - 220° (SW) 2,882 6.1 -15.0°
Reaches altitude 10° 22:04:09 10° 222° (SW) 2,452 5.8 -15.1°
Maximum altitude 22:09:44 63° 303° (WNW) 936 4.1 -15.3°
Drops below altitude 10° 22:15:22 10° 25° (NNE) 2,472 6.9 -15.5°
Sets 22:17:52 0° 29° (NNE) 3,412 7.7 -15.5°
